Regional Weather Roundup
Issued by NWS Lake Charles, LA

Home | Current Version | Previous Version | Text Only | Print | Product List | Glossary On
Versions: 1 2 3 4 5 6 7 8 9 10 11 12 13 14 15 16 17 18 19 20 21 22 23 24 25 26 27 28
000
ASUS44 KLCH 250110
RWRLCH
REGIONAL WEATHER ROUNDUP
NATIONAL WEATHER SERVICE LAKE CHARLES LA
800 PM CDT SUN SEP 24 2017

Note: "fair" indicates few or no clouds below 12,000 feet with no
significant weather and/or obstructions to visibility.


ACROSS SOUTHEAST TEXAS

CITY           SKY/WX    TMP DP  RH WIND       PRES   REMARKS
BEAUMONT       CLEAR     76  72  87 S3        29.86S
BEAUMONT CITY  FAIR      79  73  84 CALM      29.88R
ORANGE         CLEAR     80  74  80 MISG      29.89R
JASPER           N/A     77  73  87 CALM      29.91R
$$

ACROSS CENTRAL LOUISIANA

CITY           SKY/WX    TMP DP  RH WIND       PRES   REMARKS
LEESVILLE      CLEAR     76  71  85 CALM      29.88S
FULLERTON      FAIR      76  70  82 CALM      29.87R
ALEXANDRIA INT CLEAR     77  69  76 E3        29.88R
ESLER FIELD    CLEAR     73  71  93 CALM      29.90R
DERIDDER       FAIR      79  70  73 CALM      29.91R
OAKDALE        CLEAR     74  72  93 CALM      29.89R FOG
OPELOUSAS      FAIR      79  69  73 E3        29.89R
$$

ACROSS SOUTHWEST AND SOUTH CENTRAL LOUISIANA

CITY           SKY/WX    TMP DP  RH WIND       PRES   REMARKS
SULPHUR        PTCLDY    80  72  75 CALM      29.88S
LAKE CHARLES   MOCLDY    81  73  76 CALM      29.87R
CHENNAULT INT  PTCLDY    79  68  69 CALM      29.88R
CAMERON PHI      N/A     82  72  69 SE10      29.86S
DEQUINCY       FAIR      79  70  74 CALM      29.88S
JENNINGS       FAIR      79  70  73 SE6       29.88F
LAFAYETTE      CLEAR     78  73  84 CALM      29.89R
NEW IBERIA     CLEAR     77  67  71 E5        29.90R
ABBEVILLE      NOT AVBL
PATTERSON      CLEAR     74  69  85 E5        29.90R
SALT POINT       N/A     75  73  93 E3        29.87R
$$

SELECTED SITES ACROSS THE REGION

CITY           SKY/WX    TMP DP  RH WIND       PRES   REMARKS
HOUSTON BUSH   PTCLDY    75  70  84 E7        29.86F
HOUSTON HOBBY  PTCLDY    83  72  69 SE7       29.85R
GALVESTON      CLEAR     84  74  71 E13       29.86S
COLLEGE STAT   PTCLDY    84  71  65 E9        29.85R
CONROE         PTCLDY    77  71  82 SE5       29.88R
HUNTSVILLE     CLOUDY    81  69  67 VRB5      29.88R
LUFKIN         CLEAR     77  72  84 CALM      29.88R
SHREVEPORT     CLEAR     80  68  66 SE3       29.89R
MONROE         CLEAR     76  71  85 CALM      29.91S
NATCHEZ MS     PTCLDY    78  69  73 SE13G20   29.93R
BATON ROUGE    CLEAR     76  62  62 NE7       29.91R
N.O. INTL ARPT PTCLDY    81  70  69 E12       29.91R
SLIDELL        HVY RAIN  72  68  87 NE8       29.92R FOG
$$

MARINE REPORTS

STATION/POSITION TIME  SKY/WX   TEMP    WIND        PRES    VSBY
                                AIR SEA DIR/SP/G
                 (UTC)          (F)     (DEG/KT/KT) (MB)    (MI)
BUOY 30 S HIGH I NOT AVBL
SEA RIM ST PARK  0000            82     120/ 10/ 12 1011.7R
PORT ARTHUR      0048            81 84  140/  5/  9 1011.6R
SABINE PASS N    0048            82 85  130/  9/ 10 1012.8R
TEXAS POINT      NOT AVBL
CALCASIEU PASS   0048            83 85  160/ 10/ 13 1010.4R
LK CHARLES BEACH 0048            84 81              1011.2R
MARSH ISLAND     0000            83                   N/A
FRESH WATER LOCK 0048            79 87   60/  5/  5 1011.8R
AMERADA PASS     0048            78 83   30/  1/  3 1011.9R
$$




USA.gov is the U.S. government's official web portal to all federal, state and local government web resources and services.